Location: Colossi of Memnon
(25.7167°N, 32.6167°E)
Time: 20:38:09
(UTC+00:00)

Cosmos 2074 Rocket - Pass Details

Date: 05 March 2021
Orbit: 967 x 986 km, 82.9° (Epoch: 21 April)

Event Time Altitude Azimuth Distance (km) Brightness Sun altitude
Rises 03:13:26 0° 358° (N) 3,658 7.0 -13.3°
Reaches altitude 10° 03:15:58 10° 0° (N) 2,707 6.3 -12.7°
Maximum altitude 03:22:08 71° 85° (E) 1,016 4.3 -11.3°
Drops below altitude 10° 03:28:17 10° 169° (SSE) 2,698 6.5 -10.0°
Sets 03:30:48 0° 171° (S) 3,644 7.2 -9.4°
